Location: Del Amo
(33.8464°N, 118.2104°W)
Time: 18:57:33
(UTC+00:00)

S-56A Canister/Altair - Pass Details

Date: 16 September 2024
Orbit: 636 x 2487 km, 38.9° (Epoch: 14 October)

Event Time Altitude Azimuth Distance (km) Brightness Sun altitude
Rises 05:19:46 0° 287° (WNW) 3,724 11.8 -39.7°
Reaches altitude 10° 05:22:02 10° 289° (WNW) 2,961 11.1 -40.1°
Enters shadow 05:27:35 56° 316° (NW) 1,592 9.1 -41.0°
Maximum altitude 05:29:27 71° 14° (NNE) 1,537 - -41.3°
Drops below altitude 10° 05:40:55 10° 98° (E) 4,437 - -43.0°
Sets 05:45:04 0° 100° (E) 5,679 - -43.7°
